Powrót do katalogu

STARLINK-33891

AktywnyŁącznośćVLEO
NORAD 63827·PAYLOAD·🇺🇸 United States

Wystrzelony May 4, 2025 z Cape Canaveral Space Force Station

Loading…

Następne Przeloty (najbliższe 24 godziny)

TLE

ŚwieżeSource: CelesTrak SupGP

Epoka: Sep 15, 2026, 02:27 UTC

1 63827C 25092Z   26258.10256944 -.00036113  00000+0 -13082-2 0  2587
2 63827  43.0001 183.2271 0001215 272.7430 257.5490 15.27592199    17

Śledź STARLINK-33891 w czasie rzeczywistym z AllMySat

Download on the App Store